sat.trackr.live / text

‹ back to catalog

STARLINK-35923

NORAD 66641 · 2025-271AA

PAYLOAD ACTIVE UNKNOWN

§ Identity

Operator
Country
US
Launch date
2025-11-23
Launch site
AFWTR
Launch vehicle
Mass (kg)
RCS (m²)

Purposes: comms

External: N2YO · Heavens-Above · Gunter

§ Orbital elements

Epoch: 2026-05-24T17:28:55.588224Z

Period
94.11 min
Inclination
53.1608°
Eccentricity
0.0001477
Mean motion
15.30205126 rev/d
Perigee alt
474.2 km
Apogee alt
476.2 km
Semi-major
6,853.3 km
B*
3.0563e-4
RAAN
147.0803°
Arg perigee
90.2099°
Mean anomaly
269.9072°
Rev number
2,920

§ Raw data

STARLINK-359231 66641U 25271AA  26144.72842116  .00008705  00000+0  30563-3 0  99972 66641  53.1608 147.0803 0001477  90.2099 269.9072 15.30205126 29202

JSON: /api/v1/satellites/66641 · /tle

For live sub-satellite position, see the globe view (requires WebGL).

§ Visibility from observer

Set your observer location to see the next 7 days of passes ≥ 10°. The values pass through the URL so the page stays shareable.

No JS? Fill the form by hand. The geolocation button needs JavaScript.